Погода в Костроме

Россия / Костромская область     57°46′04″N   40°55′36″E
темп.,
°C
ветер,
м/с
пор.,
м/с
влажн.,
%
обл.,
%
осадки,
мм/ч
давл.,
гПа
погр.,
м
25 февраля, чт
чт2500:00−15ю51094100 0.4 1026441
03:00−15ю61195100 1.6 1023438
06:00−15ю71295100 2.1 1016446
09:00−13ююв5995100 4.6 1013389
12:00−10ююв5794100 0.9 1011302
15:00−7юв3494100 1.3 1010234
18:00−8юв2496100 0.5 1011116
21:00−8юв2396100 0.8 101198
26 февраля, пт
пт2600:00−7юв2296100 0.3 101169
03:00−6вюв3496100 0.6 1011109
06:00−6юв4696100 0.3 1008146
09:00−6юв6896100 1.6 1005187
12:00−4юв6996100 2.7 1001216
15:00+2ююз411100100 9.4 998364
18:00+1з61498100 2.9 995562
21:000з5119897 3.0 994604
27 февраля, сб
сб2700:000з4998100 0.6 993442
03:000зсз61097100 1.8 994551
06:00−4зсз599696 0.4 995365
09:00−10с699498 1.1 998460
12:00−11ссв6990100 0.4 1002598
15:00−11ссв6989100 0.6 1005657
18:00−12с41092100 0.1 1008597
21:00−15с489598 0.1 1011198
28 февраля, вс
вс2800:00−18с469622 0.0 1013132
03:00−19с369711 0.0 1015112
06:00−20ссз34970 0.0 101668
09:00−18ссз36954 0.0 1018211
12:00−13ссз359039 0.0 1018336
15:00−10ссз369167 0.0 1018460
18:00−12ссз2396100 0.0 101922
21:00−14ссз239786 0.1 102220
1 марта, пн
пн100:00−13ссз229795 0.1 102321
03:00−9з129697 0.1 102335
06:00−8зюз2397100 0.1 102345
09:00−7з369684 0.1 1023187
12:00−3зюз469497 0.1 1023393
15:00−1зюз589598 0.1 1021424
18:000зюз61294100 0.1 1018567
21:00+1з71393100 0.1 1016652